Location: Quaker Farms
(41.4276°N, 73.1557°W)
Time: 20:05:46
(UTC+00:00)

S-56A Canister/Altair - Pass Details

Date: 20 June 2021
Orbit: 631 x 2501 km, 38.9° (Epoch: 30 July)

Event Time Altitude Azimuth Distance (km) Brightness Sun altitude
Rises 14:28:19 0° 276° (W) 3,302 10.4 54.7°
Reaches altitude 10° 14:30:44 10° 265° (W) 2,539 10.0 55.1°
Maximum altitude 14:35:58 31° 204° (SSW) 1,828 9.8 56.1°
Drops below altitude 10° 14:43:14 10° 147° (SSE) 3,575 11.5 57.3°
Sets 14:47:19 0° 138° (SE) 4,895 12.1 58.0°
